AL, 02, 1915080512,   , BEST,   0, 140N,  260W,  30,     , TD, , , , , , , , , , , , , ,    UNNAMED
AL, 02, 1915080518,   , BEST,   0, 140N,  278W,  30,     , TD, , , , , , , , , , , , , ,    UNNAMED
AL, 02, 1915080600,   , BEST,   0, 141N,  296W,  35,     , TS, , , , , , , , , , , , , ,    UNNAMED
AL, 02, 1915080606,   , BEST,   0, 141N,  313W,  35,     , TS, , , , , , , , , , , , , ,    UNNAMED
AL, 02, 1915080612,   , BEST,   0, 142N,  330W,  35,     , TS, , , , , , , , , , , , , ,    UNNAMED
AL, 02, 1915080618,   , BEST,   0, 142N,  345W,  35,     , TS, , , , , , , , , , , , , ,    UNNAMED
AL, 02, 1915080700,   , BEST,   0, 143N,  360W,  35,     , TS, , , , , , , , , , , , , ,    UNNAMED
AL, 02, 1915080706,   , BEST,   0, 144N,  375W,  35,     , TS, , , , , , , , , , , , , ,    UNNAMED
AL, 02, 1915080712,   , BEST,   0, 145N,  390W,  40,     , TS, , , , , , , , , , , , , ,    UNNAMED
AL, 02, 1915080718,   , BEST,   0, 146N,  405W,  40,     , TS, , , , , , , , , , , , , ,    UNNAMED
AL, 02, 1915080800,   , BEST,   0, 146N,  420W,  45,     , TS, , , , , , , , , , , , , ,    UNNAMED
AL, 02, 1915080806,   , BEST,   0, 147N,  435W,  50,     , TS, , , , , , , , , , , , , ,    UNNAMED
AL, 02, 1915080812,   , BEST,   0, 148N,  450W,  55,     , TS, , , , , , , , , , , , , ,    UNNAMED
AL, 02, 1915080818,   , BEST,   0, 148N,  468W,  60,     , TS, , , , , , , , , , , , , ,    UNNAMED
AL, 02, 1915080900,   , BEST,   0, 149N,  488W,  65,     , HU, , , , , , , , , , , , , ,    UNNAMED
AL, 02, 1915080906,   , BEST,   0, 150N,  508W,  70,     , HU, , , , , , , , , , , , , ,    UNNAMED
AL, 02, 1915080912,   , BEST,   0, 151N,  525W,  70,     , HU, , , , , , , , , , , , , ,    UNNAMED
AL, 02, 1915080918,   , BEST,   0, 151N,  540W,  70,     , HU, , , , , , , , , , , , , ,    UNNAMED
AL, 02, 1915081000,   , BEST,   0, 152N,  555W,  75,     , HU, , , , , , , , , , , , , ,    UNNAMED
AL, 02, 1915081006,   , BEST,   0, 152N,  570W,  75,     , HU, , , , , , , , , , , , , ,    UNNAMED
AL, 02, 1915081012,   , BEST,   0, 153N,  585W,  75,     , HU, , , , , , , , , , , , , ,    UNNAMED
AL, 02, 1915081018,   , BEST,   0, 153N,  597W,  80,     , HU, , , , , , , , , , , , , ,    UNNAMED
AL, 02, 1915081100,   , BEST,   0, 154N,  606W,  80,     , HU, , , , , , , , , , , , , ,    UNNAMED
AL, 02, 1915081106,   , BEST,   0, 155N,  615W,  80,     , HU, , , , , , , , , , , , , ,    UNNAMED
AL, 02, 1915081112,   , BEST,   0, 157N,  627W,  85,     , HU, , , , , , , , , , , , , ,    UNNAMED
AL, 02, 1915081118,   , BEST,   0, 160N,  644W,  85,     , HU, , , , , , , , , , , , , ,    UNNAMED
AL, 02, 1915081200,   , BEST,   0, 163N,  664W,  85,     , HU, , , , , , , , , , , , , ,    UNNAMED
AL, 02, 1915081206,   , BEST,   0, 166N,  684W,  90,     , HU, , , , , , , , , , , , , ,    UNNAMED
AL, 02, 1915081212,   , BEST,   0, 170N,  704W,  90,     , HU, , , , , , , , , , , , , ,    UNNAMED
AL, 02, 1915081218,   , BEST,   0, 174N,  724W,  90,     , HU, , , , , , , , , , , , , ,    UNNAMED
AL, 02, 1915081300,   , BEST,   0, 178N,  744W,  95,     , HU, , , , , , , , , , , , , ,    UNNAMED
AL, 02, 1915081306,   , BEST,   0, 183N,  764W,  95,     , HU, , , , , , , , , , , , , ,    UNNAMED
AL, 02, 1915081312,   , BEST,   0, 188N,  782W, 100,     , HU, , , , , , , , , , , , , ,    UNNAMED
AL, 02, 1915081318,   , BEST,   0, 193N,  794W, 100,     , HU, , , , , , , , , , , , , ,    UNNAMED
AL, 02, 1915081400,   , BEST,   0, 198N,  806W, 105,     , HU, , , , , , , , , , , , , ,    UNNAMED
AL, 02, 1915081406,   , BEST,   0, 204N,  821W, 115,     , HU, , , , , , , , , , , , , ,    UNNAMED
AL, 02, 1915081412,   , BEST,   0, 210N,  834W, 125,     , HU, , , , , , , , , , , , , ,    UNNAMED
AL, 02, 1915081418,   , BEST,   0, 217N,  847W, 125,     , HU, , , , , , , , , , , , , ,    UNNAMED
AL, 02, 1915081500,   , BEST,   0, 223N,  858W, 125,     , HU, , , , , , , , , , , , , ,    UNNAMED
AL, 02, 1915081506,   , BEST,   0, 229N,  866W, 125,     , HU, , , , , , , , , , , , , ,    UNNAMED
AL, 02, 1915081512,   , BEST,   0, 235N,  875W, 120,     , HU, , , , , , , , , , , , , ,    UNNAMED
AL, 02, 1915081518,   , BEST,   0, 241N,  884W, 120,     , HU, , , , , , , , , , , , , ,    UNNAMED
AL, 02, 1915081600,   , BEST,   0, 247N,  892W, 115,     , HU, , , , , , , , , , , , , ,    UNNAMED
AL, 02, 1915081606,   , BEST,   0, 254N,  901W, 115,     , HU, , , , , , , , , , , , , ,    UNNAMED
AL, 02, 1915081612,   , BEST,   0, 262N,  911W, 115,     , HU, , , , , , , , , , , , , ,    UNNAMED
AL, 02, 1915081618,   , BEST,   0, 271N,  924W, 115,     , HU, , , , , , , , , , , , , ,    UNNAMED
AL, 02, 1915081700,   , BEST,   0, 280N,  937W, 115,     , HU, , , , , , , , , , , , , ,    UNNAMED
AL, 02, 1915081706,   , BEST,   0, 289N,  950W, 115,  940, HU, , , , , , , , , , , , , ,    UNNAMED
AL, 02, 1915081707,   , BEST,   0, 292N,  951W, 115,  940, HU, , , , , , , , , , , , , ,    UNNAMED
AL, 02, 1915081712,   , BEST,   0, 296N,  959W,  75,     , HU, , , , , , , , , , , , , ,    UNNAMED
AL, 02, 1915081718,   , BEST,   0, 302N,  965W,  50,     , TS, , , , , , , , , , , , , ,    UNNAMED
AL, 02, 1915081800,   , BEST,   0, 306N,  967W,  40,     , TS, , , , , , , , , , , , , ,    UNNAMED
AL, 02, 1915081806,   , BEST,   0, 310N,  966W,  40,     , TS, , , , , , , , , , , , , ,    UNNAMED
AL, 02, 1915081812,   , BEST,   0, 313N,  964W,  35,     , TS, , , , , , , , , , , , , ,    UNNAMED
AL, 02, 1915081818,   , BEST,   0, 317N,  961W,  35,     , TS, , , , , , , , , , , , , ,    UNNAMED
AL, 02, 1915081900,   , BEST,   0, 323N,  958W,  30,     , TD, , , , , , , , , , , , , ,    UNNAMED
AL, 02, 1915081906,   , BEST,   0, 329N,  953W,  30,     , TD, , , , , , , , , , , , , ,    UNNAMED
AL, 02, 1915081912,   , BEST,   0, 336N,  946W,  30,     , TD, , , , , , , , , , , , , ,    UNNAMED
AL, 02, 1915081918,   , BEST,   0, 343N,  935W,  30,     , TD, , , , , , , , , , , , , ,    UNNAMED
AL, 02, 1915082000,   , BEST,   0, 352N,  924W,  35,     , EX, , , , , , , , , , , , , ,    UNNAMED
AL, 02, 1915082006,   , BEST,   0, 362N,  912W,  35,     , EX, , , , , , , , , , , , , ,    UNNAMED
AL, 02, 1915082012,   , BEST,   0, 370N,  901W,  35,     , EX, , , , , , , , , , , , , ,    UNNAMED
AL, 02, 1915082018,   , BEST,   0, 377N,  891W,  35,     , EX, , , , , , , , , , , , , ,    UNNAMED
AL, 02, 1915082100,   , BEST,   0, 382N,  881W,  35,     , EX, , , , , , , , , , , , , ,    UNNAMED
AL, 02, 1915082106,   , BEST,   0, 388N,  871W,  35,     , EX, , , , , , , , , , , , , ,    UNNAMED
AL, 02, 1915082112,   , BEST,   0, 395N,  860W,  35,     , EX, , , , , , , , , , , , , ,    UNNAMED
AL, 02, 1915082118,   , BEST,   0, 404N,  845W,  35,     , EX, , , , , , , , , , , , , ,    UNNAMED
AL, 02, 1915082200,   , BEST,   0, 415N,  827W,  35,     , EX, , , , , , , , , , , , , ,    UNNAMED
AL, 02, 1915082206,   , BEST,   0, 426N,  807W,  30,     , EX, , , , , , , , , , , , , ,    UNNAMED
AL, 02, 1915082212,   , BEST,   0, 435N,  790W,  25,     , EX, , , , , , , , , , , , , ,    UNNAMED
AL, 02, 1915082218,   , BEST,   0, 443N,  775W,  25,     , EX, , , , , , , , , , , , , ,    UNNAMED
AL, 02, 1915082300,   , BEST,   0, 450N,  761W,  25,     , EX, , , , , , , , , , , , , ,    UNNAMED
AL, 02, 1915082306,   , BEST,   0, 456N,  747W,  25,     , EX, , , , , , , , , , , , , ,    UNNAMED
AL, 02, 1915082312,   , BEST,   0, 462N,  734W,  25,     , EX, , , , , , , , , , , , , ,    UNNAMED
AL, 02, 1915082318,   , BEST,   0, 470N,  724W,  25,     , EX, , , , , , , , , , , , , ,    UNNAMED
